C/2014 R3 ( PanSTARRS )

Japanese version
Home page
Updated on November 13, 2016

---------------------------------------------------------------------

* Profile

Discovery Date September 6, 2014
Magnitude 20.1 mag
Discoverer Pan-STARRS 1 telescope (Haleakala)

* Pictures

* Orbital Elements

Epoch 2016 July 31.0 TT = JDT 2457600.5
T 2016 Aug. 7.88017 TT                                  MPCW
q   7.2754034            (2000.0)            P               Q
z  +0.0000174      Peri.  113.39997     -0.36315027     -0.82312370
 +/-0.0000008      Node   334.11209     -0.21700414     +0.53038809
e   0.9998737      Incl.   90.83746     +0.90610766     -0.20286904
From 291 observations 2014 Sept. 6-2016 Oct. 3, mean residual 0".3.

* Magnitudes Graph

        m1 = -22 + 5 log d + 40 log r

---------------------------------------------------------------------

The orbital elements are published on M.P.E.C. 2016-U66.
The magnitudes graphs are made with Comet for Windows.

---------------------------------------------------------------------

Copyright(C) Seiichi Yoshida (comet@aerith.net). All rights reserved.